When you browse on this site, cookies collect data to enhance your experience and personalize the content and advertising you see.
Visit our Privacy Policy to learn more. By continuing to use the site, you agree to this use of cookies and data.
  • In Switzerland
  • List of Countries
  • For 7 days
  • Water Temperature
  • Weather Map
  • Weather Widgets
  • user-avatar
    Login

    Hourly Weather Truto

    Today, 13 December, Friday

    Time Temperature Precipitation Wind Pressure Humidity
    00:00 +6°C° 0 mm 15 mps 732 mmHg 69%
    01:00 +5°C° 0.1 mm 16 mps 733 mmHg 69%
    02:00 +5°C° 0.1 mm 16 mps 733 mmHg 68%
    03:00 +5°C° 0.1 mm 17 mps 734 mmHg 68%
    04:00 +5°C° 0.2 mm 17 mps 735 mmHg 66%
    05:00 +5°C° 0.2 mm 16 mps 736 mmHg 65%
    06:00 +5°C° 0 mm 15 mps 736 mmHg 64%
    07:00 +5°C° 0.1 mm 15 mps 737 mmHg 64%
    08:00 +5°C° 0.1 mm 15 mps 738 mmHg 65%
    09:00 +5°C° 0.1 mm 15 mps 739 mmHg 66%
    10:00 +5°C° 0.1 mm 14 mps 739 mmHg 66%
    11:00 +5°C° 0.1 mm 14 mps 740 mmHg 66%
    12:00 +5°C° 0.1 mm 13 mps 740 mmHg 67%
    13:00 +5°C° 0 mm 12 mps 740 mmHg 70%
    14:00 +6°C° 0 mm 11 mps 739 mmHg 73%
    15:00 +6°C° 0 mm 10 mps 739 mmHg 77%
    16:00 +7°C° 0.7 mm 10 mps 738 mmHg 83%
    17:00 +7°C° 0.7 mm 9 mps 737 mmHg 88%
    18:00 +7°C° 0.7 mm 9 mps 736 mmHg 94%
    19:00 +8°C° 0.3 mm 12 mps 736 mmHg 89%
    20:00 +8°C° 0.3 mm 15 mps 736 mmHg 84%
    21:00 +9°C° 0.3 mm 17 mps 736 mmHg 79%
    22:00 +7°C° 0 mm 17 mps 737 mmHg 72%
    23:00 +6°C° 0 mm 16 mps 738 mmHg 66%

    Tomorrow, 14 December, Saturday

    Time Temperature Precipitation Wind Pressure Humidity
    00:00 +6°C° 0 mm 16 mps 740 mmHg 59%
    01:00 +5°C° 0 mm 14 mps 740 mmHg 65%
    02:00 +5°C° 0 mm 13 mps 740 mmHg 71%
    03:00 +6°C° 0 mm 11 mps 741 mmHg 76%
    04:00 +5°C° 0.5 mm 12 mps 741 mmHg 76%
    05:00 +5°C° 0.5 mm 13 mps 741 mmHg 75%
    06:00 +5°C° 0.5 mm 13 mps 741 mmHg 74%
    07:00 +5°C° 0.2 mm 13 mps 742 mmHg 73%
    08:00 +5°C° 0.2 mm 13 mps 742 mmHg 71%
    09:00 +4°C° 0.2 mm 13 mps 743 mmHg 70%
    10:00 +6°C° 0 mm 11 mps 743 mmHg 68%
    11:00 +6°C° 0 mm 10 mps 743 mmHg 66%
    12:00 +6°C° 0 mm 8 mps 743 mmHg 65%
    13:00 +6°C° 0 mm 9 mps 742 mmHg 69%
    14:00 +6°C° 0 mm 10 mps 741 mmHg 73%
    15:00 +6°C° 0 mm 10 mps 741 mmHg 77%
    16:00 +5°C° 0.5 mm 12 mps 740 mmHg 78%
    17:00 +5°C° 0.5 mm 13 mps 739 mmHg 80%
    18:00 +5°C° 0.5 mm 15 mps 738 mmHg 81%
    19:00 +5°C° 0.4 mm 15 mps 738 mmHg 79%
    20:00 +4°C° 0.4 mm 15 mps 739 mmHg 76%
    21:00 +4°C° 0.4 mm 14 mps 739 mmHg 73%
    22:00 +4°C° 0.1 mm 15 mps 739 mmHg 70%
    23:00 +4°C° 0.1 mm 15 mps 740 mmHg 67%

    Day after tomorrow, 15 December, Sunday

    Time Temperature Precipitation Wind Pressure Humidity
    00:00 +4°C° 0.1 mm 15 mps 740 mmHg 64%
    01:00 +3°C° 0 mm 14 mps 741 mmHg 67%
    02:00 +3°C° 0 mm 13 mps 741 mmHg 69%
    03:00 +3°C° 0 mm 11 mps 742 mmHg 71%
    04:00 +3°C° 0.4 mm 11 mps 742 mmHg 72%
    05:00 +4°C° 0.4 mm 12 mps 742 mmHg 73%
    06:00 +4°C° 0.4 mm 12 mps 742 mmHg 74%
    07:00 +4°C° 0.4 mm 12 mps 742 mmHg 73%
    08:00 +4°C° 0.4 mm 13 mps 742 mmHg 72%
    09:00 +4°C° 0.4 mm 14 mps 742 mmHg 72%
    10:00 +4°C° 0.2 mm 14 mps 742 mmHg 70%
    11:00 +5°C° 0.2 mm 14 mps 742 mmHg 69%
    12:00 +5°C° 0.2 mm 14 mps 743 mmHg 68%
    13:00 +5°C° 0.2 mm 13 mps 743 mmHg 68%
    14:00 +5°C° 0.2 mm 13 mps 743 mmHg 69%
    15:00 +5°C° 0.2 mm 13 mps 743 mmHg 70%
    16:00 +5°C° 0.2 mm 12 mps 743 mmHg 71%
    17:00 +4°C° 0.2 mm 12 mps 742 mmHg 73%
    18:00 +4°C° 0.2 mm 12 mps 742 mmHg 74%
    19:00 +4°C° 0.3 mm 12 mps 743 mmHg 73%
    20:00 +4°C° 0.3 mm 12 mps 743 mmHg 72%
    21:00 +4°C° 0.3 mm 12 mps 743 mmHg 71%
    22:00 +4°C° 0.1 mm 12 mps 743 mmHg 72%
    23:00 +4°C° 0.1 mm 11 mps 743 mmHg 72%

    16 December, Monday

    Time Temperature Precipitation Wind Pressure Humidity
    00:00 +4°C° 0.1 mm 11 mps 743 mmHg 73%
    01:00 +5°C° 0.1 mm 10 mps 743 mmHg 73%
    02:00 +5°C° 0.1 mm 10 mps 743 mmHg 74%
    03:00 +5°C° 0.1 mm 10 mps 743 mmHg 75%
    04:00 +5°C° 0 mm 9 mps 743 mmHg 75%
    05:00 +5°C° 0 mm 9 mps 743 mmHg 75%
    06:00 +5°C° 0 mm 8 mps 743 mmHg 75%
    07:00 +4°C° 0 mm 7 mps 743 mmHg 77%
    08:00 +4°C° 0 mm 7 mps 744 mmHg 78%
    09:00 +4°C° 0 mm 6 mps 744 mmHg 80%
    10:00 +5°C° 0 mm 6 mps 744 mmHg 77%
    11:00 +7°C° 0 mm 5 mps 744 mmHg 75%
    12:00 +8°C° 0 mm 5 mps 744 mmHg 73%
    13:00 +7°C° 0.1 mm 4 mps 744 mmHg 73%
    14:00 +8°C° 0.1 mm 3 mps 744 mmHg 74%
    15:00 +8°C° 0.1 mm 3 mps 744 mmHg 75%
    16:00 +7°C° 0 mm 2 mps 744 mmHg 77%
    17:00 +6°C° 0 mm 2 mps 744 mmHg 78%
    18:00 +6°C° 0 mm 1 mps 744 mmHg 79%
    19:00 +6°C° 0 mm 1 mps 745 mmHg 79%
    20:00 +6°C° 0 mm 1 mps 745 mmHg 79%
    21:00 +6°C° 0 mm 1 mps 745 mmHg 79%
    22:00 +5°C° 0 mm 2 mps 746 mmHg 79%
    23:00 +5°C° 0 mm 2 mps 746 mmHg 80%

    17 December, Tuesday

    Time Temperature Precipitation Wind Pressure Humidity
    00:00 +5°C° 0 mm 2 mps 746 mmHg 80%
    01:00 +5°C° 0 mm 2 mps 746 mmHg 79%
    02:00 +5°C° 0 mm 2 mps 747 mmHg 78%
    03:00 +4°C° 0 mm 3 mps 747 mmHg 77%
    04:00 +4°C° 0 mm 3 mps 747 mmHg 75%
    05:00 +4°C° 0 mm 3 mps 747 mmHg 74%
    06:00 +4°C° 0 mm 3 mps 748 mmHg 72%
    07:00 +4°C° 0 mm 3 mps 748 mmHg 71%
    08:00 +5°C° 0 mm 2 mps 749 mmHg 70%
    09:00 +5°C° 0 mm 2 mps 749 mmHg 69%
    10:00 +5°C° 0 mm 3 mps 749 mmHg 67%
    11:00 +7°C° 0 mm 3 mps 750 mmHg 65%
    12:00 +7°C° 0 mm 4 mps 750 mmHg 63%
    13:00 +7°C° 0 mm 4 mps 750 mmHg 64%
    14:00 +8°C° 0 mm 3 mps 750 mmHg 65%
    15:00 +8°C° 0 mm 3 mps 750 mmHg 67%
    16:00 +7°C° 0 mm 3 mps 750 mmHg 68%
    17:00 +5°C° 0 mm 3 mps 751 mmHg 69%
    18:00 +5°C° 0 mm 3 mps 751 mmHg 70%
    19:00 +5°C° 0 mm 4 mps 751 mmHg 73%
    20:00 +5°C° 0 mm 4 mps 752 mmHg 76%
    21:00 +5°C° 0 mm 4 mps 752 mmHg 80%
    22:00 +5°C° 0.2 mm 4 mps 752 mmHg 82%
    23:00 +5°C° 0.2 mm 4 mps 752 mmHg 84%

    18 December, Wednesday

    Time Temperature Precipitation Wind Pressure Humidity
    00:00 +5°C° 0.2 mm 4 mps 753 mmHg 87%
    01:00 +5°C° 0 mm 4 mps 753 mmHg 86%
    02:00 +4°C° 0 mm 4 mps 753 mmHg 86%
    03:00 +4°C° 0 mm 4 mps 753 mmHg 85%
    04:00 +4°C° 0 mm 4 mps 753 mmHg 85%
    05:00 +4°C° 0 mm 4 mps 753 mmHg 85%
    06:00 +4°C° 0 mm 4 mps 753 mmHg 85%
    07:00 +5°C° 0 mm 4 mps 753 mmHg 84%
    08:00 +5°C° 0 mm 5 mps 753 mmHg 84%
    09:00 +5°C° 0 mm 5 mps 753 mmHg 83%
    10:00 +5°C° 0 mm 7 mps 753 mmHg 81%
    11:00 +6°C° 0 mm 8 mps 752 mmHg 79%
    12:00 +8°C° 0 mm 9 mps 752 mmHg 76%
    13:00 +7°C° 0 mm 10 mps 752 mmHg 76%
    14:00 +7°C° 0 mm 10 mps 751 mmHg 76%
    15:00 +7°C° 0 mm 11 mps 750 mmHg 76%
    16:00 +7°C° 0 mm 11 mps 750 mmHg 76%
    17:00 +7°C° 0 mm 11 mps 750 mmHg 76%
    18:00 +7°C° 0 mm 12 mps 749 mmHg 76%
    19:00 +7°C° 0 mm 12 mps 749 mmHg 77%
    20:00 +7°C° 0 mm 12 mps 748 mmHg 77%
    21:00 +7°C° 0 mm 12 mps 748 mmHg 78%
    22:00 +5°C° 0.2 mm 12 mps 747 mmHg 79%
    23:00 +5°C° 0.2 mm 12 mps 747 mmHg 80%
    Show more